Time,TemperatureF,DewpointF,PressureIn,WindDirection,WindDirectionDegrees,WindSpeedMPH,WindSpeedGustMPH,Humidity,HourlyPrecipIn,Conditions,Clouds,dailyrainin,SoftwareType,DateUTC
2013-01-26 00:00:00,35.7,34.0,29.90,WNW,293,1.0,4.0,94,0.00,,,0.22,weatherlink.com 1.10,2013-01-26 08:00:00,
2013-01-26 00:15:00,35.5,34.0,29.90,West,280,0.0,2.0,94,0.00,,,0.00,weatherlink.com 1.10,2013-01-26 08:15:00,
2013-01-26 00:30:00,35.3,34.0,29.89,West,278,0.0,1.0,95,0.00,,,0.00,weatherlink.com 1.10,2013-01-26 08:30:00,
2013-01-26 00:45:00,35.1,34.0,29.90,WNW,302,1.0,5.0,95,0.01,,,0.01,weatherlink.com 1.10,2013-01-26 08:45:00,
2013-01-26 01:00:00,34.3,33.0,29.90,NW,310,0.0,2.0,95,0.02,,,0.02,weatherlink.com 1.10,2013-01-26 09:00:00,
2013-01-26 01:15:00,33.2,32.0,29.89,NE,44,1.0,2.0,94,0.02,,,0.02,weatherlink.com 1.10,2013-01-26 09:15:00,
2013-01-26 01:30:00,32.7,31.0,29.89,East,89,0.0,2.0,94,0.02,,,0.02,weatherlink.com 1.10,2013-01-26 09:30:00,
2013-01-26 01:45:00,32.7,31.0,29.88,East,89,1.0,1.0,94,0.01,,,0.02,weatherlink.com 1.10,2013-01-26 09:45:00,
2013-01-26 02:00:00,32.6,31.0,29.89,East,90,0.0,1.0,93,0.00,,,0.02,weatherlink.com 1.10,2013-01-26 10:00:00,
2013-01-26 02:15:00,32.6,31.0,29.89,NNW,342,0.0,0.0,92,0.00,,,0.02,weatherlink.com 1.10,2013-01-26 10:15:00,
2013-01-26 02:30:00,32.7,31.0,29.89,NNW,341,0.0,2.0,92,0.00,,,0.02,weatherlink.com 1.10,2013-01-26 10:30:00,
2013-01-26 02:45:00,33.0,30.0,29.89,SE,127,0.0,3.0,89,0.00,,,0.02,weatherlink.com 1.10,2013-01-26 10:45:00,
2013-01-26 03:00:00,32.3,30.0,29.89,SE,138,0.0,2.0,90,0.00,,,0.02,weatherlink.com 1.10,2013-01-26 11:00:00,
2013-01-26 03:15:00,31.8,28.0,29.88,SSW,200,0.0,3.0,87,0.00,,,0.02,weatherlink.com 1.10,2013-01-26 11:15:00,
2013-01-26 03:30:00,31.6,28.0,29.89,SE,143,0.0,1.0,87,0.00,,,0.02,weatherlink.com 1.10,2013-01-26 11:30:00,
2013-01-26 03:45:00,31.5,28.0,29.89,SE,131,0.0,1.0,86,0.00,,,0.02,weatherlink.com 1.10,2013-01-26 11:45:00,
2013-01-26 04:00:00,31.4,28.0,29.89,WNW,293,0.0,3.0,87,0.00,,,0.02,weatherlink.com 1.10,2013-01-26 12:00:00,
2013-01-26 04:15:00,31.0,27.0,29.89,WNW,282,0.0,1.0,84,0.00,,,0.02,weatherlink.com 1.10,2013-01-26 12:15:00,
2013-01-26 04:30:00,30.7,26.0,29.89,WNW,301,0.0,3.0,81,0.00,,,0.02,weatherlink.com 1.10,2013-01-26 12:30:00,
2013-01-26 04:45:00,30.2,24.0,29.89,SE,124,0.0,3.0,79,0.00,,,0.02,weatherlink.com 1.10,2013-01-26 12:45:00,
2013-01-26 05:00:00,29.7,25.0,29.89,ESE,105,0.0,1.0,83,0.00,,,0.02,weatherlink.com 1.10,2013-01-26 13:00:00,
2013-01-26 05:15:00,29.2,24.0,29.89,ESE,117,1.0,3.0,81,0.00,,,0.02,weatherlink.com 1.10,2013-01-26 13:15:00,
2013-01-26 05:30:00,29.5,23.0,29.90,SE,139,0.0,1.0,77,0.00,,,0.02,weatherlink.com 1.10,2013-01-26 13:30:00,
2013-01-26 05:45:00,30.0,23.0,29.90,ESE,118,0.0,0.0,74,0.00,,,0.02,weatherlink.com 1.10,2013-01-26 13:45:00,
2013-01-26 06:01:00,30.1,23.0,29.90,SE,135,1.0,2.0,74,0.00,,,0.02,weatherlink.com 1.10,2013-01-26 14:01:00,
2013-01-26 06:16:00,30.5,23.0,29.89,SE,128,1.0,2.0,73,0.00,,,0.02,weatherlink.com 1.10,2013-01-26 14:16:00,
2013-01-26 06:31:00,30.1,23.0,29.90,ESE,108,3.0,3.0,74,0.00,,,0.02,weatherlink.com 1.10,2013-01-26 14:31:00,
2013-01-26 06:46:00,30.0,24.0,29.89,East,93,0.0,4.0,78,0.00,,,0.02,weatherlink.com 1.10,2013-01-26 14:46:00,
2013-01-26 07:01:00,30.1,23.0,29.90,ESE,119,0.0,3.0,75,0.00,,,0.02,weatherlink.com 1.10,2013-01-26 15:01:00,
2013-01-26 07:16:00,28.9,24.0,29.90,SE,146,3.0,3.0,82,0.00,,,0.02,weatherlink.com 1.10,2013-01-26 15:16:00,
2013-01-26 07:31:00,29.0,25.0,29.90,SE,145,3.0,6.0,83,0.00,,,0.02,weatherlink.com 1.10,2013-01-26 15:31:00,
2013-01-26 07:46:00,29.0,25.0,29.91,East,93,4.0,5.0,83,0.00,,,0.02,weatherlink.com 1.10,2013-01-26 15:46:00,
2013-01-26 08:01:00,29.1,24.0,29.91,SE,143,2.0,5.0,81,0.00,,,0.02,weatherlink.com 1.10,2013-01-26 16:01:00,
2013-01-26 08:16:00,29.8,24.0,29.91,SE,139,1.0,7.0,79,0.00,,,0.02,weatherlink.com 1.10,2013-01-26 16:16:00,
2013-01-26 08:31:00,29.3,24.0,29.91,SSE,154,4.0,6.0,81,0.00,,,0.02,weatherlink.com 1.10,2013-01-26 16:31:00,
2013-01-26 08:46:00,30.1,24.0,29.91,SE,142,4.0,6.0,79,0.00,,,0.02,weatherlink.com 1.10,2013-01-26 16:46:00,
2013-01-26 09:01:00,31.8,25.0,29.92,SE,134,3.0,5.0,75,0.00,,,0.02,weatherlink.com 1.10,2013-01-26 17:01:00,
2013-01-26 09:16:00,32.8,25.0,29.92,SSE,168,1.0,4.0,74,0.00,,,0.02,weatherlink.com 1.10,2013-01-26 17:16:00,
2013-01-26 09:31:00,32.5,25.0,29.93,SSE,160,2.0,3.0,75,0.00,,,0.02,weatherlink.com 1.10,2013-01-26 17:31:00,
2013-01-26 09:46:00,33.3,25.0,29.93,WSW,243,0.0,2.0,71,0.00,,,0.02,weatherlink.com 1.10,2013-01-26 17:46:00,
2013-01-26 10:01:00,33.8,25.0,29.93,WNW,300,6.0,8.0,69,0.00,,,0.02,weatherlink.com 1.10,2013-01-26 18:01:00,
2013-01-26 10:16:00,33.3,25.0,29.93,WNW,301,2.0,10.0,71,0.00,,,0.02,weatherlink.com 1.10,2013-01-26 18:16:00,
2013-01-26 10:31:00,33.5,25.0,29.93,WNW,283,6.0,9.0,71,0.00,,,0.02,weatherlink.com 1.10,2013-01-26 18:31:00,
2013-01-26 10:46:00,33.3,25.0,29.93,SSW,210,1.0,8.0,71,0.00,,,0.02,weatherlink.com 1.10,2013-01-26 18:46:00,
2013-01-26 11:02:00,33.3,24.0,29.93,West,273,3.0,8.0,70,0.00,,,0.02,weatherlink.com 1.10,2013-01-26 19:02:00,
2013-01-26 11:16:00,32.9,24.0,29.92,SSW,200,1.0,4.0,71,0.00,,,0.02,weatherlink.com 1.10,2013-01-26 19:16:00,
2013-01-26 11:31:00,34.4,23.0,29.91,West,280,1.0,8.0,64,0.00,,,0.02,weatherlink.com 1.10,2013-01-26 19:31:00,
2013-01-26 11:46:00,35.3,23.0,29.91,WNW,293,5.0,8.0,61,0.00,,,0.02,weatherlink.com 1.10,2013-01-26 19:46:00,
2013-01-26 12:01:00,34.9,23.0,29.91,WNW,287,5.0,8.0,62,0.00,,,0.02,weatherlink.com 1.10,2013-01-26 20:01:00,
2013-01-26 12:16:00,35.5,23.0,29.90,NW,326,5.0,10.0,60,0.00,,,0.02,weatherlink.com 1.10,2013-01-26 20:16:00,
2013-01-26 12:31:00,36.1,23.0,29.90,WSW,245,7.0,9.0,59,0.00,,,0.02,weatherlink.com 1.10,2013-01-26 20:31:00,
2013-01-26 12:46:00,35.3,23.0,29.90,West,274,3.0,8.0,60,0.00,,,0.02,weatherlink.com 1.10,2013-01-26 20:46:00,
2013-01-26 13:01:00,35.1,23.0,29.89,WNW,301,3.0,9.0,61,0.00,,,0.02,weatherlink.com 1.10,2013-01-26 21:01:00,
2013-01-26 13:16:00,34.5,23.0,29.89,WNW,290,4.0,8.0,62,0.00,,,0.02,weatherlink.com 1.10,2013-01-26 21:16:00,
2013-01-26 13:31:00,35.3,23.0,29.89,WSW,250,5.0,8.0,62,0.00,,,0.02,weatherlink.com 1.10,2013-01-26 21:31:00,
2013-01-26 13:46:00,35.5,24.0,29.89,WNW,284,1.0,7.0,62,0.00,,,0.02,weatherlink.com 1.10,2013-01-26 21:46:00,
2013-01-26 14:01:00,35.5,24.0,29.89,WNW,295,6.0,9.0,62,0.00,,,0.02,weatherlink.com 1.10,2013-01-26 22:01:00,
2013-01-26 14:16:00,35.8,23.0,29.89,West,280,4.0,12.0,61,0.00,,,0.02,weatherlink.com 1.10,2013-01-26 22:16:00,
2013-01-26 14:31:00,35.5,23.0,29.89,WNW,284,5.0,10.0,61,0.00,,,0.02,weatherlink.com 1.10,2013-01-26 22:31:00,
2013-01-26 14:46:00,36.3,23.0,29.89,West,260,3.0,13.0,60,0.00,,,0.02,weatherlink.com 1.10,2013-01-26 22:46:00,
2013-01-26 15:01:00,35.8,23.0,29.90,WNW,301,7.0,10.0,61,0.00,,,0.02,weatherlink.com 1.10,2013-01-26 23:01:00,
2013-01-26 15:16:00,35.3,25.0,29.90,WNW,284,8.0,11.0,65,0.00,,,0.02,weatherlink.com 1.10,2013-01-26 23:16:00,
2013-01-26 15:31:00,34.4,23.0,29.90,West,276,4.0,10.0,64,0.00,,,0.02,weatherlink.com 1.10,2013-01-26 23:31:00,
2013-01-26 15:46:00,34.7,22.0,29.90,WNW,293,6.0,10.0,60,0.00,,,0.02,weatherlink.com 1.10,2013-01-26 23:46:00,
2013-01-26 16:01:00,33.5,23.0,29.91,WNW,297,4.0,6.0,65,0.00,,,0.02,weatherlink.com 1.10,2013-01-27 00:01:00,
2013-01-26 16:16:00,35.0,21.0,29.90,WNW,287,4.0,10.0,58,0.00,,,0.02,weatherlink.com 1.10,2013-01-27 00:16:00,
2013-01-26 16:31:00,33.6,22.0,29.91,WNW,291,4.0,8.0,62,0.00,,,0.02,weatherlink.com 1.10,2013-01-27 00:31:00,
2013-01-26 16:46:00,32.2,22.0,29.91,WNW,290,3.0,9.0,67,0.00,,,0.02,weatherlink.com 1.10,2013-01-27 00:46:00,
2013-01-26 17:01:00,31.2,23.0,29.91,NW,307,2.0,4.0,72,0.00,,,0.02,weatherlink.com 1.10,2013-01-27 01:01:00,
2013-01-26 17:16:00,30.4,23.0,29.92,West,269,3.0,7.0,74,0.00,,,0.02,weatherlink.com 1.10,2013-01-27 01:16:00,
2013-01-26 17:31:00,29.7,22.0,29.93,SSW,212,3.0,7.0,74,0.00,,,0.02,weatherlink.com 1.10,2013-01-27 01:31:00,
2013-01-26 17:46:00,29.3,23.0,29.93,WSW,255,0.0,3.0,76,0.00,,,0.02,weatherlink.com 1.10,2013-01-27 01:46:00,
2013-01-26 18:01:00,28.8,23.0,29.93,West,262,0.0,6.0,79,0.00,,,0.02,weatherlink.com 1.10,2013-01-27 02:01:00,
2013-01-26 18:16:00,28.7,23.0,29.94,SSW,205,0.0,5.0,80,0.00,,,0.02,weatherlink.com 1.10,2013-01-27 02:16:00,
2013-01-26 18:31:00,28.6,23.0,29.94,SE,127,2.0,4.0,80,0.00,,,0.02,weatherlink.com 1.10,2013-01-27 02:31:00,
2013-01-26 18:46:00,28.5,23.0,29.94,East,93,1.0,2.0,79,0.00,,,0.02,weatherlink.com 1.10,2013-01-27 02:46:00,
2013-01-26 19:01:00,27.9,23.0,29.95,ESE,115,1.0,2.0,80,0.00,,,0.02,weatherlink.com 1.10,2013-01-27 03:01:00,
2013-01-26 19:16:00,27.8,22.0,29.96,SW,219,2.0,3.0,80,0.00,,,0.02,weatherlink.com 1.10,2013-01-27 03:16:00,
2013-01-26 19:32:00,28.0,22.0,29.97,WNW,284,0.0,2.0,79,0.00,,,0.02,weatherlink.com 1.10,2013-01-27 03:32:00,
2013-01-26 19:47:00,28.2,22.0,29.97,ENE,64,2.0,5.0,76,0.00,,,0.02,weatherlink.com 1.10,2013-01-27 03:47:00,
2013-01-26 20:02:00,28.2,22.0,29.97,NW,304,0.0,4.0,76,0.00,,,0.02,weatherlink.com 1.10,2013-01-27 04:02:00,
2013-01-26 20:17:00,27.8,21.0,29.97,South,176,1.0,4.0,76,0.00,,,0.02,weatherlink.com 1.10,2013-01-27 04:17:00,
2013-01-26 20:32:00,27.7,21.0,29.97,SSE,159,1.0,2.0,76,0.00,,,0.02,weatherlink.com 1.10,2013-01-27 04:32:00,
2013-01-26 20:47:00,27.1,21.0,29.97,ESE,120,1.0,2.0,78,0.00,,,0.02,weatherlink.com 1.10,2013-01-27 04:47:00,
2013-01-26 21:02:00,27.1,21.0,29.98,SW,226,1.0,2.0,77,0.00,,,0.02,weatherlink.com 1.10,2013-01-27 05:02:00,
2013-01-26 21:17:00,27.0,21.0,29.98,SSE,152,0.0,2.0,77,0.00,,,0.02,weatherlink.com 1.10,2013-01-27 05:17:00,
2013-01-26 21:32:00,26.8,21.0,29.99,East,98,1.0,1.0,78,0.00,,,0.02,weatherlink.com 1.10,2013-01-27 05:32:00,
2013-01-26 21:47:00,26.7,20.0,29.99,ESE,107,0.0,1.0,77,0.00,,,0.02,weatherlink.com 1.10,2013-01-27 05:47:00,
2013-01-26 22:02:00,27.0,21.0,30.00,SE,128,0.0,0.0,77,0.00,,,0.02,weatherlink.com 1.10,2013-01-27 06:02:00,
2013-01-26 22:17:00,27.0,21.0,30.00,SE,136,0.0,2.0,78,0.00,,,0.02,weatherlink.com 1.10,2013-01-27 06:17:00,
2013-01-26 22:32:00,27.1,21.0,30.00,SE,138,0.0,2.0,77,0.00,,,0.02,weatherlink.com 1.10,2013-01-27 06:32:00,
2013-01-26 22:47:00,27.2,21.0,30.01,SE,136,0.0,1.0,78,0.00,,,0.02,weatherlink.com 1.10,2013-01-27 06:47:00,
2013-01-26 23:02:00,27.6,21.0,30.01,ESE,116,1.0,5.0,77,0.00,,,0.02,weatherlink.com 1.10,2013-01-27 07:02:00,
2013-01-26 23:17:00,27.9,21.0,30.01,SE,138,0.0,3.0,76,0.00,,,0.02,weatherlink.com 1.10,2013-01-27 07:17:00,
2013-01-26 23:32:00,28.0,22.0,30.02,SSW,205,0.0,3.0,77,0.00,,,0.02,weatherlink.com 1.10,2013-01-27 07:32:00,
2013-01-26 23:47:00,27.8,22.0,30.02,SW,224,1.0,2.0,78,0.00,,,0.02,weatherlink.com 1.10,2013-01-27 07:47:00,